Regional Weather Roundup
Issued by NWS

Home | Current Version | Previous Version | Graphics & Text | Print | Product List | Glossary On
Versions: 1 2 3 4 5 6 7 8 9 10 11 12 13 14 15 16 17 18 19 20 21 22 23 24 25 26 27 28 29 30 31 32 33 34 35 36 37 38 39 40 41 42 43 44 45 46 47 48 49 50
000
ASUS45 KABQ 011110
RWRNM
NEW MEXICO REGIONAL WEATHER ROUNDUP
NATIONAL WEATHER SERVICE ALBUQUERQUE NM
500 AM MDT TUE SEP 01 2015

NOTE: "FAIR" MEANS FEW OR NO CLOUDS BELOW 12,000 FEET AGL WITH NO
       SIGNIFICANT WEATHER OR OBSTRUCTIONS TO VISION.

      THIS PRODUCT IS RELEASED AS TWO VERSIONS.  ONE VERSION NEAR
      THE TOP OF THE HOUR CONTAINING PRELIMINARY DATA FROM ALBUQUERQUE
      AND OTHER STATIONS.  A FINAL VERSION WITH ADDITIONAL DATA IS
      ISSUED ABOUT 10 MINUTES AFTER THE HOUR.

NMZ501-503-504-510>518-011200-
NORTHWEST PLATEAU/NORTHCENTRAL MOUNTAINS

CITY           SKY/WX    TMP DP  RH WIND       PRES   REMARKS
FARMINGTON     CLEAR     57  46  66 N3        30.16F
LOS ALAMOS     PTCLDY    62  46  55 NE3       30.27S
SANTA FE       PTCLDY    57  50  77 N8        30.21S
TAOS           CLEAR     46  34  61 N6        30.30S
ANGEL FIRE     FOG       45  44  98 CALM      30.37R VSB 1/4

$$
NMZ402-403-502-505>509-011200-
WESTCENTRAL MOUNTAINS/SOUTHWEST MOUNTAINS

CITY           SKY/WX    TMP DP  RH WIND       PRES   REMARKS
GALLUP         CLOUDY    57  51  80 E5        30.25F
GRANTS         CLOUDY    60  52  75 CALM      30.28R
SILVER CITY      N/A     63  54  72 NW14      30.19S

$$
NMZ407-409-411-412-011200-
SOUTHERN DESERTS

CITY           SKY/WX    TMP DP  RH WIND       PRES   REMARKS
LORDSBURG      FAIR      64  61  88 W8        30.12F
DEMING         PTCLDY    67  55  65 W9        30.10S
LAS CRUCES     PTCLDY    63  48  58 N5        30.08F
HOLLOMAN AFB   CLEAR     69  51  52 NE5       30.03F
ALAMOGORDO     CLEAR     70  46  43 E6        30.06S
T OR C         CLEAR     70  50  49 NW9       30.11S

$$
NMZ519>523-011200-
CENTRAL VALLEYS/CENTRAL HIGHLANDS

CITY           SKY/WX    TMP DP  RH WIND       PRES   REMARKS
ALBUQUERQUE    PTCLDY    68  48  48 S5        30.16R
DOUBLE EAGLE   PTCLDY    62  48  60 W6        30.20R
MORIARTY ARPT  FAIR      52  46  79 CALM      30.22R
CLINES CORNERS PTCLDY    54  44  69 W13       30.24S
BELEN          FAIR      65  48  52 W3        30.15S
SOCORRO        FAIR      66  48  51 SW6       30.13R

$$
NMZ524>526-539-540-011200-
SOUTHCENTRAL MOUNTAINS

CITY           SKY/WX    TMP DP  RH WIND       PRES   REMARKS
RUIDOSO        CLEAR     63  45  51 MISG      30.27R

$$
NMZ527>531-011200-
NORTHEAST HIGHLANDS/NORTHEAST PLAINS

CITY           SKY/WX    TMP DP  RH WIND       PRES   REMARKS
LAS VEGAS      CLEAR     53  47  79 NE3       30.22F
RATON          PTCLDY    53  49  86 NE3       30.18S
CLAYTON        PTCLDY    60  55  83 NW8       30.09R

$$
NMZ532>537-011200-
EASTCENTRAL PLAINS

CITY           SKY/WX    TMP DP  RH WIND       PRES   REMARKS
TUCUMCARI      PTCLDY    69  48  47 SW10      30.03S
CANNON AFB     CLEAR     67  52  59 W5        30.08S
CLOVIS AIRPORT CLEAR     64  52  63 SW8       30.09S

$$
NMZ028-029-538-011200-
SOUTHEAST PLAINS

CITY           SKY/WX    TMP DP  RH WIND       PRES   REMARKS
ROSWELL        CLEAR     67  49  52 S8        30.03R
ARTESIA        CLEAR     66  52  59 W9        30.04R
CARLSBAD       NOT AVBL
HOBBS            N/A     66  55  68 S7        30.06R


$$



USA.gov is the U.S. government's official web portal to all federal, state and local government web resources and services.